SL-14 DEB

Satellite information

Favourite Embed

Satellite Type and Status

DEBRISIN ORBIT

Key statistics

Satellite SL-14 DEB at a glance.

Uptime

12444

Days in orbit

Revolutions

≈ 13.4

Per day

Orbit

LEO

Low Earth Orbit

Inclination

82.5

Latest

Satellite identification and parameters

Extended collection of information and parameters for SL-14 DEB.

Object identification

Identified? True

Debris? True

Object name: SL-14 DEB

International designator: 1991-056CU

Object number (NORAD): 45469

Object ID (CCSDS): 45469

Country: COMMONWEALTH OF INDEPENDENT STATES (CIS)

Current information (Y/N): Y

RCS size: SMALL

Orbital parameters

Period: 107.288 minutes

Inclination: 82.5456 deg

SMA: 7479.287 km

Apoapsis: 1178.322 km

Periapsis: 1023.982 km

RAAN: 280.4275 deg

Eccentricy: 0.01031784

Argument of periapsis: 211.9437 deg

Mean anomaly: 147.5419 deg

Mean motion: 13.42185286 rev/day

Mean motion (dot): 0.00001277 rev/day2

B* drag term: 0.0021774674 1/REarth

Two-line elements (TLE)

Creation date: Sept. 8, 2025, 6:18 p.m.

Reference frame: TEME

Reference center: EARTH

Epoch: Sept. 7, 2025, 2:11 a.m. UTC

TLE line 0: 0 SL-14 DEB

TLE line 1: 1 45469U 91056CU 25250.09138139 .00001277 00000-0 21775-2 0 9998

TLE line 2: 2 45469 82.5456 280.4275 0103178 211.9437 147.5419 13.42185286267450

Live tracking on map

Real-time ground track for satellite SL-14 DEB.

In-orbit conjunctions

A list of the most updated potential collisions computed for object SL-14 DEB.

Target Orbit TCA Probability of collision Miss distance Type
NOVA 2 LEO 2024-06-22 13:14:06 0.0001369294 388.0 (m) PAYLOAD

Associated space launch

Third generation meteorological satellite

SL-14 DEB was lifted into orbit during the mission ‘Tsiklon-3 | Meteor-3 5’, on board a Tsiklon-3 space rocket.

The launch took place on Aug. 15, 1991, 9:15 a.m. from 32/2.

For more information about the launch, click the button.

Launch to space Tsiklon-3 | Meteor-3 5
Tsiklon-3 | Meteor-3 5

Agency: N/A

Status: Launch Successful

Launch date: Aug. 15, 1991, 9:15 a.m. UTC

Rocket: Tsiklon-3

Launch pad: 32/2

Location: Plesetsk Cosmodrome, Russian Federation

...

Latest news about this satellite

There are no fresh news available about this satellite. Check back as we update our databases every day.


Newsletter sign-up

Weekly statistics, charts and insights to help you stay on top of the space industry.